GFSGBSN_sfc_30mbdewp_111.txt.gz
Dewpoint
50 51 51 51 51 51 51 52 53 53 54 55 58 58 58 58 57 56 54 52 51 50 49 46 44 44 39 37 34 43 50 48 37 32 26 24 22 20 19 19 15 13 14 16 12 10 12
49 49 50 49 49 49 50 51 52 53 53 53 54 56 58 58 57 57 55 52 51 50 47 44 44 43 39 38 34 24 29 37 31 30 27 23 22 21 19 19 17 15 14 15 16 13 17
49 48 48 49 49 50 50 51 52 52 52 53 53 54 56 57 57 57 55 53 51 48 45 44 44 36 37 40 37 29 28 25 30 27 26 24 20 19 19 19 19 19 18 20 20 18 16
46 47 47 48 49 50 48 48 49 49 51 51 52 53 53 55 56 56 55 52 50 46 44 44 43 38 37 40 35 33 29 28 27 30 27 25 23 20 20 21 21 18 17 16 19 18 17
44 44 46 46 47 49 48 49 50 51 51 51 52 52 52 52 55 56 53 51 48 46 44 42 39 39 39 36 33 32 32 28 26 26 27 24 25 23 23 23 21 19 16 17 18 17 17
43 43 44 46 47 49 50 50 50 50 50 50 50 50 53 52 53 54 51 48 45 42 41 40 36 38 39 38 36 26 29 24 19 19 24 24 21 20 20 18 15 16 15 16 15 15 16
43 42 45 47 48 49 48 47 48 48 49 49 49 50 52 53 53 50 46 44 43 42 40 39 38 37 36 32 28 29 31 23 16 15 21 23 19 17 18 19 19 17 16 15 13 14 14
44 43 45 47 47 46 46 46 47 47 47 48 49 49 50 53 53 49 49 44 43 39 37 41 40 40 38 38 35 35 32 29 26 18 19 19 17 19 19 18 16 15 15 14 13 12 12
46 45 45 46 44 44 44 45 47 47 47 48 49 50 51 53 53 49 49 46 41 40 39 37 35 36 34 36 34 34 34 31 27 25 24 19 15 14 17 17 12 11 13 13 12 13 14
43 46 46 45 44 45 45 46 47 47 46 48 49 50 51 53 47 47 45 41 35 42 34 31 30 32 33 34 32 31 31 30 27 24 24 24 24 19 19 19 16 14 15 15 14 12 9
44 45 46 47 47 46 46 47 47 48 48 49 50 50 51 51 46 44 43 38 37 41 23 21 24 28 27 29 26 22 29 31 28 25 24 25 25 23 21 21 21 16 16 14 12 12 10
44 45 46 46 47 47 46 46 46 47 47 48 50 52 52 50 45 45 39 37 42 32 22 21 20 20 24 26 27 21 21 27 29 25 24 22 23 23 17 15 15 16 14 13 11 9 8
44 45 45 46 47 47 46 46 46 47 48 49 51 53 50 46 42 44 39 40 31 26 23 21 21 21 23 22 22 19 19 21 21 20 20 20 21 23 19 19 18 15 14 12 9 9 9
44 44 45 46 47 47 45 46 47 48 49 51 54 52 50 47 42 40 39 37 26 21 21 20 21 20 19 19 17 16 18 17 20 19 18 24 25 19 20 17 17 16 13 13 17 13 14
43 43 44 45 47 46 44 45 46 48 51 53 51 48 45 45 40 39 40 29 26 22 20 20 20 17 18 19 15 16 17 17 16 19 18 22 19 24 19 16 15 13 16 15 17 19 14
43 43 43 44 46 45 43 44 46 48 52 49 44 42 40 45 42 41 37 31 27 28 28 23 20 20 19 21 15 15 16 19 15 18 20 24 25 21 18 16 15 12 17 19 13 8 6
40 42 43 44 45 45 42 44 48 51 50 46 42 36 39 46 44 38 31 33 35 30 22 19 19 17 17 17 16 12 14 22 21 24 26 24 21 20 19 15 13 14 11 11 11 14 13
40 41 43 43 45 45 42 44 50 49 46 41 37 32 39 45 32 32 31 36 32 27 18 18 17 16 16 18 15 13 12 24 24 27 25 25 23 21 18 15 16 13 12 12 11 9 6
39 41 43 43 45 45 43 42 46 44 43 40 32 31 37 40 29 29 34 33 31 21 20 20 19 18 22 24 15 17 20 25 25 25 21 26 22 16 11 12 15 11 11 11 10 11 9
38 40 41 42 44 45 45 44 44 44 44 40 33 27 30 32 34 33 32 31 25 27 25 23 22 19 20 24 24 24 23 22 24 22 24 19 15 11 5 4 12 12 8 10 12 16 10
38 39 41 41 43 45 46 45 45 44 43 41 37 32 30 27 30 33 33 30 24 19 21 19 22 22 22 23 23 24 27 23 23 27 21 19 15 11 9 6 4 8 9 10 9 12 11
37 39 41 39 44 44 46 46 45 44 43 39 33 34 31 28 27 33 33 31 29 25 22 20 20 20 22 20 19 19 20 19 20 24 22 22 16 16 11 9 7 6 6 3 3 6 6
37 40 39 39 41 43 44 45 45 44 42 37 39 34 31 32 33 31 30 31 29 25 20 19 16 16 15 15 16 17 18 17 17 20 20 20 16 14 9 4 5 2 3 2 2 2 4
39 40 39 39 43 42 43 44 44 43 41 41 35 34 34 29 29 29 27 29 25 20 17 16 17 15 22 23 21 19 18 17 17 15 22 16 15 13 8 10 2 13 20 20 17 15 16
40 40 42 42 42 42 42 43 43 43 42 40 36 35 35 30 30 28 24 21 20 19 18 19 24 24 23 19 10 8 9 10 9 10 13 15 11 11 8 5 5 14 26 25 24 19 28
40 41 42 41 41 41 41 42 43 42 41 39 38 38 35 33 31 24 19 20 19 20 22 25 27 26 21 17 11 3 5 7 16 16 20 16 13 11 11 7 6 25 25 24 27 18 26
40 40 40 40 39 39 38 39 41 40 40 39 37 40 37 29 28 21 20 19 18 18 17 22 22 22 23 21 18 11 9 11 12 20 18 20 17 13 12 14 22 24 27 29 19 20 25
40 40 38 37 37 36 38 40 40 40 39 41 38 38 37 30 27 25 24 22 20 17 17 18 19 22 19 19 19 18 21 16 21 25 20 17 17 17 18 20 17 25 26 22 26 27 26
39 38 37 37 41 40 40 42 42 40 42 41 33 36 37 31 29 30 30 29 26 23 20 21 26 21 24 25 22 23 21 23 23 18 25 22 26 26 23 22 26 26 27 29 30 27 26

GFSGBSN_sfc_30mbdewp_114.txt.gz
Dewpoint
51 50 51 51 51 50 50 51 52 53 53 53 53 54 56 57 58 58 57 55 53 51 50 48 45 44 39 44 41 44 46 43 37 32 29 28 26 25 23 23 23 22 19 19 18 18 18
50 51 50 50 49 49 50 50 52 52 53 53 53 53 54 55 57 58 57 55 53 51 50 45 44 43 39 41 44 40 33 36 32 31 30 28 25 25 24 23 21 22 22 21 17 16 17
48 48 49 49 48 49 50 50 49 50 50 50 52 53 53 53 54 56 57 56 53 51 47 44 44 38 38 41 44 44 32 29 30 31 31 28 28 25 23 21 22 21 19 20 20 20 21
47 46 46 48 48 49 50 48 48 50 50 51 51 52 52 53 52 53 56 55 53 50 45 44 43 37 40 44 44 42 42 41 32 30 30 30 29 26 24 23 22 20 21 21 21 20 20
45 45 45 45 47 47 49 50 50 51 51 51 51 51 51 52 52 52 55 54 51 48 45 44 39 40 39 41 41 41 37 34 33 31 28 29 27 26 26 22 21 22 21 22 21 20 19
45 44 44 46 46 48 49 50 51 50 50 50 50 50 50 51 52 53 53 50 48 44 42 40 37 38 39 37 37 34 27 29 30 26 25 26 24 22 23 22 19 19 17 16 17 17 17
44 44 44 44 47 48 49 48 48 48 48 49 49 49 50 51 52 51 48 46 44 43 40 41 33 34 32 34 31 31 31 27 24 23 18 23 24 23 22 22 21 20 18 18 18 18 17
46 45 45 44 45 46 46 46 46 47 48 48 48 49 50 51 52 50 49 46 42 43 38 40 40 37 36 34 32 33 34 29 28 22 21 19 22 24 24 22 20 19 18 17 17 16 16
46 46 46 45 45 45 45 45 46 46 48 48 48 48 50 50 51 50 49 47 47 42 40 36 33 34 34 35 32 32 31 31 30 27 25 23 22 21 18 16 14 14 14 16 14 13 15
45 46 45 43 45 46 47 47 46 46 48 48 48 48 50 50 49 49 47 50 41 45 35 26 24 31 32 30 30 32 33 30 28 27 27 23 21 19 19 18 17 14 18 18 16 14 16
44 44 45 46 46 47 47 48 47 46 47 47 47 48 50 51 48 46 46 39 44 45 20 11 18 28 27 30 27 22 30 30 28 27 26 25 23 21 23 24 23 20 21 23 21 22 22
45 45 45 46 46 47 47 48 47 47 46 46 47 48 49 50 49 47 39 40 45 33 22 15 19 23 25 26 27 26 23 24 27 26 26 25 26 25 25 28 26 18 16 20 23 19 17
45 46 45 45 46 46 47 48 47 47 46 47 47 49 49 51 46 43 40 44 32 25 18 13 13 20 19 19 22 24 24 19 19 22 23 23 22 22 26 25 20 18 17 14 21 18 15
44 45 45 45 45 46 47 48 47 46 46 46 47 48 51 50 46 41 43 38 26 19 20 12 15 15 18 19 20 20 19 17 19 21 19 18 20 20 23 24 21 18 19 22 16 15 16
42 43 45 45 45 46 46 47 47 46 45 46 48 50 50 49 44 43 41 30 25 22 15 17 17 16 13 16 17 16 15 15 17 18 17 20 20 23 22 23 21 20 19 23 22 25 19
41 40 42 44 44 45 45 46 45 45 45 46 45 43 41 47 44 44 37 31 28 24 21 19 16 18 18 15 15 17 16 17 16 18 19 20 18 28 25 18 17 15 14 17 28 20 13
39 39 41 42 44 44 44 45 44 45 46 47 44 39 40 45 44 39 31 32 33 29 25 26 22 18 21 21 22 26 21 15 21 19 21 20 24 27 26 20 17 16 11 13 16 15 19
39 39 40 41 42 43 44 45 44 47 50 46 40 35 41 44 33 32 32 36 35 30 31 30 25 23 21 22 22 17 22 24 26 25 23 28 27 24 23 20 17 15 16 16 13 12 13
39 39 40 40 42 43 44 45 45 44 45 40 33 32 39 41 29 30 33 36 35 33 31 27 22 21 23 23 21 19 17 26 26 29 27 29 29 20 18 22 17 14 14 13 16 17 14
38 39 39 39 40 43 44 44 45 44 43 40 34 28 31 34 36 32 31 33 33 34 33 27 23 23 21 21 24 22 19 24 25 24 23 27 24 23 21 17 14 15 13 10 12 14 13
38 38 38 39 39 42 42 44 44 45 44 43 36 31 31 27 29 32 34 33 32 33 32 33 30 26 21 21 26 27 23 24 23 26 22 20 18 18 17 13 11 7 6 10 8 10 11
37 38 38 39 39 41 41 42 45 45 44 39 33 34 34 33 29 32 35 33 33 32 30 31 25 25 23 26 26 25 23 25 26 23 24 22 20 18 16 13 9 5 4 4 4 4 7
36 37 38 38 39 40 41 42 45 45 42 37 39 40 36 33 31 30 32 30 30 28 27 26 25 26 27 27 25 23 25 24 20 25 24 22 20 16 11 8 5 4 6 5 5 4 4
36 36 37 37 38 40 41 42 44 45 42 40 40 38 35 30 32 32 30 30 31 31 28 29 27 24 24 22 20 19 18 18 18 18 22 19 18 15 12 11 5 5 20 21 20 18 20
36 36 37 37 39 40 41 39 46 45 42 41 41 39 37 32 30 30 33 33 31 32 26 22 24 24 24 19 12 10 11 11 12 14 14 18 16 13 11 6 6 12 25 24 22 17 24
40 40 40 40 41 41 42 43 44 44 41 42 40 43 39 35 31 32 34 34 33 30 27 26 26 24 21 19 12 4 5 7 9 8 8 10 14 14 9 8 6 24 25 24 25 18 24
39 40 40 42 41 42 43 44 44 43 42 41 41 42 39 35 35 32 31 32 29 24 23 25 25 23 23 22 18 11 5 9 14 13 16 14 13 11 11 14 22 25 26 27 20 19 24
40 41 40 42 43 42 42 42 43 42 41 40 41 43 40 34 32 31 30 26 24 20 22 23 18 18 20 20 17 19 22 11 23 28 19 17 17 16 15 18 16 25 26 22 25 26 26
39 42 41 41 40 40 39 40 41 40 41 42 38 41 41 34 31 31 30 30 28 25 22 22 24 20 24 21 22 24 22 24 23 18 26 22 27 26 23 23 25 26 25 28 28 27 27

GFSGBSN_sfc_30mbdewp_117.txt.gz
Dewpoint
51 50 50 51 51 50 50 51 52 52 52 53 53 53 53 53 54 56 57 57 56 55 52 51 47 45 40 43 43 44 42 43 40 34 30 29 28 26 25 24 24 23 23 23 23 22 21
50 51 51 50 50 49 49 51 51 51 52 51 51 52 53 53 53 54 55 57 56 54 52 48 46 45 39 40 44 45 43 39 32 31 30 30 28 28 26 24 23 24 23 22 22 22 22
48 48 49 49 49 49 49 51 49 49 49 50 51 52 52 52 53 53 53 56 56 54 51 47 45 41 38 42 45 45 43 41 35 35 33 33 31 28 27 25 25 23 21 22 21 21 21
47 47 46 47 47 47 49 50 49 48 50 52 52 52 51 51 51 52 52 54 55 53 49 45 45 39 38 43 43 42 43 43 42 31 30 30 31 30 28 27 25 22 22 21 22 22 23
45 45 46 46 46 47 48 49 51 50 51 51 51 50 51 51 51 51 53 54 53 50 47 45 41 38 39 41 42 43 43 42 38 40 32 30 29 29 27 25 24 23 20 21 22 24 24
45 45 45 46 46 47 48 49 50 51 50 50 50 49 50 50 51 53 52 50 50 47 45 43 39 37 38 33 37 39 40 38 34 33 31 27 26 23 24 24 22 22 21 21 20 20 20
46 45 45 45 45 46 47 49 49 48 48 48 49 49 49 50 51 50 48 47 44 42 41 39 36 35 33 35 34 36 30 29 29 29 25 25 23 22 22 22 24 22 21 21 21 21 19
49 47 45 45 45 45 46 47 47 47 47 48 49 49 49 50 51 50 48 43 43 43 39 41 41 39 35 35 34 33 34 30 25 22 24 21 20 24 25 25 24 23 21 19 18 18 17
47 47 47 47 46 45 45 46 47 47 47 48 49 49 49 49 48 50 48 45 47 43 39 37 36 39 39 39 35 34 34 32 30 27 27 23 22 22 22 22 22 22 20 17 16 19 22
45 46 46 45 44 44 46 47 48 48 47 47 48 48 48 49 47 47 45 48 48 44 35 31 29 32 34 36 31 35 35 32 30 28 29 28 27 26 24 21 19 17 23 23 22 25 23
46 46 46 46 46 46 47 47 48 48 48 47 47 48 48 49 48 43 44 49 44 44 -3 13 21 30 31 31 28 26 31 32 30 30 28 27 27 27 26 26 23 21 28 20 17 20 26
45 46 46 45 46 46 47 48 48 48 48 48 47 47 48 47 48 47 48 45 44 31 14 21 23 26 26 29 29 28 27 31 31 30 29 28 27 27 26 26 26 28 23 19 17 21 21
43 44 46 47 46 46 47 47 47 48 48 48 47 47 47 47 44 45 42 45 31 25 20 10 13 22 24 24 25 24 25 25 22 19 21 24 26 26 27 25 29 28 20 19 17 16 14
43 44 44 46 46 46 46 46 47 48 48 47 47 47 46 47 49 42 45 37 24 21 15 12 15 15 17 20 19 20 23 23 23 21 19 19 20 22 29 26 26 25 20 21 16 17 19
42 43 44 45 46 46 46 46 46 47 48 47 46 45 47 51 48 44 41 28 24 21 18 19 18 16 16 16 18 17 19 21 20 18 17 17 20 24 24 23 25 23 18 22 22 24 21
41 41 43 43 44 45 45 45 46 46 47 46 43 41 43 48 45 45 36 28 28 26 22 22 20 18 17 18 19 18 18 17 17 18 20 20 18 27 28 20 19 20 17 20 27 20 16
40 40 41 42 42 43 44 45 45 45 46 46 41 38 41 47 45 41 31 31 30 31 28 26 24 22 25 22 23 27 31 31 26 21 21 25 22 27 28 24 17 16 14 14 24 23 18
40 40 41 41 41 41 43 44 44 45 45 45 39 31 42 46 35 33 32 33 32 31 31 29 30 28 29 25 24 27 29 34 31 25 24 28 29 27 26 26 23 21 18 18 15 13 15
39 39 40 41 41 41 42 43 44 45 44 42 36 34 40 41 30 30 33 33 34 32 33 31 30 29 31 22 23 23 26 27 27 29 28 28 27 21 20 25 27 25 16 18 20 19 17
38 38 39 39 39 41 41 43 44 44 44 40 34 30 33 35 37 33 30 31 31 35 33 33 33 29 25 22 26 23 23 25 25 27 29 28 28 23 18 23 24 18 18 16 15 14 14
37 38 38 39 39 39 40 41 43 44 44 41 35 32 31 26 30 32 34 32 29 30 33 33 33 29 26 25 24 25 25 24 24 25 23 24 20 22 21 20 20 24 20 12 13 13 12
36 37 38 38 38 38 38 40 42 43 44 39 32 32 36 32 30 32 32 33 30 30 31 34 30 30 31 30 30 31 27 26 25 26 23 23 20 19 18 18 16 12 9 7 7 6 6
35 36 37 37 38 38 38 40 42 41 44 38 38 39 37 32 33 30 29 32 32 32 34 34 33 32 31 32 32 30 25 28 28 26 25 24 22 19 15 12 10 7 8 12 8 18 19
35 35 36 36 37 38 38 39 41 42 43 39 39 38 34 29 32 30 29 31 33 33 33 28 34 32 34 35 27 25 22 20 21 27 26 25 22 18 15 12 7 20 24 22 20 24 27
34 35 36 36 37 38 39 39 41 42 40 41 41 39 35 30 31 31 30 30 32 33 33 31 32 34 34 30 20 12 12 12 13 17 20 22 20 17 13 10 12 18 23 23 20 22 25
35 35 35 36 37 38 38 40 41 41 40 42 40 40 38 33 32 32 31 36 32 32 33 33 31 34 31 22 14 8 9 9 8 8 14 17 17 15 13 11 6 24 26 26 25 17 24
36 36 37 38 38 40 40 40 41 40 40 41 39 41 40 33 36 33 32 32 37 34 29 27 24 22 25 22 16 10 7 12 9 12 9 11 15 12 12 12 21 25 26 25 17 16 23
40 41 39 40 41 41 41 41 42 43 44 40 39 43 39 34 35 38 37 35 37 31 26 26 20 22 23 20 18 18 20 18 23 25 16 15 14 15 15 13 14 25 26 22 25 26 27
40 39 40 39 42 42 41 41 43 44 44 42 39 43 43 37 35 38 36 37 36 32 27 26 24 21 23 22 22 24 23 23 22 21 27 21 25 24 23 21 25 26 27 28 29 26 28

GFSGBSN_sfc_30mbdewp_120.txt.gz
Dewpoint
52 51 51 51 52 50 50 51 52 52 52 53 52 53 53 53 53 53 54 56 57 57 55 53 51 47 42 43 44 45 46 44 37 33 28 29 27 26 25 25 25 24 24 24 24 23 23
50 51 51 51 50 49 49 51 50 50 50 50 51 51 52 51 52 53 53 53 55 56 55 53 48 45 40 36 41 44 45 40 32 32 30 29 28 29 28 25 24 24 24 23 23 23 22
49 49 49 49 49 48 48 50 49 48 49 51 51 52 51 51 50 51 52 53 54 56 54 51 46 43 39 40 44 43 42 42 41 37 32 34 32 29 29 27 27 25 24 23 23 23 22
47 48 47 47 49 47 48 48 50 49 49 51 51 50 50 51 50 51 51 52 52 53 53 49 46 40 40 42 43 43 42 42 43 43 36 31 30 30 29 28 27 25 24 22 23 23 23
46 46 47 46 46 47 48 48 49 50 50 51 50 49 49 50 50 51 53 53 53 53 50 47 42 40 37 41 36 42 43 42 43 42 35 32 30 28 29 26 24 24 22 21 22 23 23
46 45 45 46 46 45 46 47 48 49 50 49 48 49 49 50 51 52 52 51 51 48 47 45 42 38 36 30 35 41 43 43 41 37 33 32 28 24 24 24 20 21 22 22 21 22 22
46 45 46 47 47 45 46 46 48 48 47 47 48 49 49 49 51 50 49 47 43 41 41 38 34 36 32 36 34 35 37 40 34 32 29 28 26 23 23 23 24 24 23 22 23 23 20
49 48 48 46 46 46 45 46 46 46 47 47 48 49 49 49 50 50 49 44 43 44 38 41 41 39 36 37 35 35 34 30 28 25 26 26 23 24 24 23 23 22 23 23 24 23 21
45 46 48 48 47 46 46 46 47 46 47 46 47 48 48 49 48 50 46 44 47 45 39 38 40 40 40 40 37 34 35 32 30 25 23 21 22 23 23 24 24 24 22 21 20 22 24
46 46 47 48 47 47 46 46 47 47 48 47 47 47 48 49 44 46 44 46 47 46 33 27 35 33 38 39 36 38 36 32 30 28 29 28 27 26 26 26 25 22 22 22 24 22 18
47 46 47 47 46 46 46 46 48 48 48 48 47 47 47 49 45 42 40 45 47 43 -26 14 24 34 37 34 28 27 36 34 30 29 29 28 27 27 27 27 28 27 28 27 25 24 21
47 47 47 47 47 47 47 47 47 47 48 49 48 47 47 44 47 46 48 47 44 23 -22 11 25 29 32 32 29 28 31 33 33 31 30 30 31 29 28 28 28 28 25 22 20 19 17
46 46 46 47 46 46 47 47 48 48 48 48 48 48 46 45 41 45 45 45 29 13 14 11 20 27 29 28 28 28 27 28 27 27 27 28 28 26 27 26 28 28 27 25 19 17 15
44 44 44 44 46 46 47 46 46 47 47 48 48 47 46 46 44 45 45 38 21 14 16 13 13 12 18 24 26 27 24 24 26 23 20 20 19 21 28 26 25 28 27 25 17 16 16
44 45 44 45 45 46 46 46 46 46 46 48 47 44 44 46 46 45 41 28 18 19 20 18 15 12 9 12 16 20 24 23 23 24 22 19 19 24 22 25 27 24 22 26 23 24 21
43 44 44 44 45 46 45 45 46 45 45 46 41 40 39 48 48 44 36 26 25 25 24 22 20 20 18 19 22 19 18 25 24 24 22 20 17 27 28 21 20 24 25 22 26 19 16
43 43 43 43 44 44 43 44 44 44 44 46 39 34 39 46 47 39 29 27 27 27 27 27 23 22 24 25 25 24 24 29 30 27 27 26 20 23 27 23 20 17 17 16 25 26 19
43 43 42 42 42 43 43 41 43 43 43 43 35 30 40 47 35 35 31 31 29 29 30 26 26 26 27 28 28 25 27 28 33 29 24 28 26 22 25 26 22 20 18 18 21 19 19
41 41 41 41 42 42 42 43 44 44 42 40 33 32 41 42 28 30 33 31 31 30 31 30 30 31 29 27 26 24 30 32 35 30 26 27 25 20 20 25 26 25 21 19 22 21 19
39 40 40 40 41 42 41 41 42 44 43 39 34 29 34 36 37 31 28 30 31 33 32 32 33 33 32 30 29 24 25 26 26 28 32 29 26 21 16 19 23 20 23 20 18 21 22
39 39 39 39 40 40 41 41 41 42 43 39 35 31 31 27 29 32 32 29 27 28 31 33 31 30 32 27 26 25 25 24 25 26 25 25 22 25 24 23 25 29 28 24 20 18 15
38 38 38 38 39 39 39 40 40 41 42 38 31 31 35 32 28 30 32 28 28 30 29 30 31 31 32 30 27 26 26 23 22 25 22 24 21 19 18 19 18 20 21 16 11 9 12
36 37 37 38 38 38 38 39 40 41 41 35 36 38 36 32 30 29 28 29 29 30 32 30 30 33 31 32 33 35 35 30 29 24 23 23 21 19 18 14 9 9 12 11 10 24 21
35 36 36 37 37 38 38 39 40 40 40 37 38 36 32 27 31 30 29 30 30 30 31 34 33 33 34 33 33 34 34 25 32 31 27 24 22 22 19 12 11 19 25 23 24 26 28
35 35 35 36 36 37 38 39 39 40 41 39 38 37 34 28 32 32 31 31 30 31 31 32 33 36 35 33 30 26 22 20 18 26 26 26 22 19 14 13 16 22 23 22 18 20 25
34 35 36 36 37 37 38 39 39 40 41 39 38 39 37 31 28 32 32 32 29 30 31 35 36 37 34 30 27 21 18 19 16 16 21 23 22 17 16 12 9 13 26 26 22 17 24
35 35 35 35 36 37 38 39 39 39 40 40 38 40 38 31 34 35 30 31 35 34 32 33 34 35 30 23 21 14 10 13 8 8 12 17 16 14 14 12 16 25 26 26 17 15 23
36 35 35 36 36 37 38 38 38 39 40 40 37 42 37 33 35 37 37 34 36 34 30 31 29 28 30 21 17 16 16 16 18 19 12 12 13 13 13 11 9 25 25 23 24 26 26
38 37 38 37 37 38 39 39 40 40 40 40 36 42 42 37 35 39 39 38 37 35 31 27 26 23 24 20 22 24 23 23 23 18 27 15 17 18 19 16 25 27 27 28 29 26 27